AirNav   TITAN Aviation Fuels
 
 1254 users online  

M27 Waldron Municipal Airport
Waldron, Arkansas, USA

GOING TO WALDRON?


FAA INFORMATION EFFECTIVE 22 APRIL 2021

Location

FAA Identifier: M27
Lat/Long: 34-52-33.6000N 094-06-32.0000W
34-52.560000N 094-06.533333W
34.8760000,-94.1088889
(estimated)
Elevation: 705 ft. / 214.9 m (surveyed)
Variation: 05E (1985)
From city: 2 miles SW of WALDRON, AR
Time zone: UTC -5 (UTC -6 during Standard Time)
Zip code: 72958

Airport Operations

Airport use: Open to the public
Activation date: 12/1970
Control tower: no
ARTCC: MEMPHIS CENTER
FSS: JONESBORO FLIGHT SERVICE STATION
NOTAMs facility: JBR (NOTAM-D service available)
Attendance: 0800-1800
Wind indicator: yes
Segmented circle: yes
Lights: ACTVT MIRL RWY 09/27 - CTAF.
Beacon: white-green (lighted land airport)
Operates sunset to sunrise.

Airport Communications

CTAF: 122.9

Nearby radio navigation aids

VOR radial/distance  VOR name  Freq  Var
PGOr061/27.3RICH MOUNTAIN VORTAC113.5004E
FSMr158/31.8FORT SMITH VORTAC110.4007E

Airport Services

Parking: tiedowns

Runway Information

Runway 9/27

Dimensions: 3650 x 60 ft. / 1113 x 18 m
Surface: asphalt, in fair condition
Weight bearing capacity: 
Single wheel: 4.0
Runway edge lights: medium intensity
RUNWAY 9  RUNWAY 27
Latitude: 34-52.569077N34-52.551292N
Longitude: 094-06.898313W094-06.168648W
Elevation: 687.2 ft.705.0 ft.
Traffic pattern: leftleft
Runway heading: 087 magnetic, 092 true267 magnetic, 272 true
Markings: nonprecision, in fair conditionnonprecision, in fair condition
Touchdown point: yes, no lightsyes, no lights
Obstructions: 25 ft. trees, 500 ft. from runway, 115 ft. right of centerline, 12:1 slope to clear17 ft. tree, 1100 ft. from runway, 285 ft. right of centerline

Airport Ownership and Management from official FAA records

Ownership: Publicly-owned
Owner: CITY OF WALDRON
CITY HALL PO BOX 310
WALDRON, AR 72958
Phone 479-637-3181
Manager: NEIL CHERRY
PO BOX 310
WALDRON, AR 72958
Phone 479-637-3181
MAYOR OF WALDRON.

Airport Operational Statistics

Aircraft based on the field: 1
Single engine airplanes: 1
    
Aircraft operations: avg 100/week *
80% local general aviation
20% transient general aviation
<1% military
* for 12-month period ending 28 February 2018

Additional Remarks

DEER ON & INVOF ARPT
FOR CD CTC RAZORBACK APCH AT 479-649-2416, WHEN APCH CLSD CTC MEMPHIS ARTCC AT 901-368-8453/8449.

Instrument Procedures

There are no published instrument procedures at M27.

Some nearby airports with instrument procedures:

KMEZ - Mena Intermountain Municipal Airport (20 nm S)
KRKR - Robert S Kerr Airport (27 nm W)
KFSM - Fort Smith Regional Airport (30 nm NW)
32A - Danville Municipal Airport (36 nm E)
7M5 - Ozark-Franklin County Airport (40 nm N)
 
Loc | Ops | Rwys | IFR | FBO | Links
Com | Nav | Svcs | Stats | Notes
Area around M27 (Waldron Municipal Airport)
 
Road maps at: MapQuest Bing Google
 
Aerial photo
WARNING: Photo may not be current or correct
Aerial photo of M27 (Waldron Municipal Airport)
Photo courtesy of the Arkansas Department of Aeronautics
Taken in the Spring of 2007

Do you have a better or more recent aerial photo of Waldron Municipal Airport that you would like to share? If so, please send us your photo.

 
Sectional chart

 
Airport distance calculator
Flying to Waldron Municipal Airport? Find the distance to fly.

From to M27

Sunrise and sunset
Times for 10-May-2021
 Local
(UTC-5)
 Zulu
(UTC)
Morning civil twilight05:5010:50
Sunrise06:1811:18
Sunset20:0801:08
Evening civil twilight20:3501:35

Current date and time
Zulu (UTC)  10-May-2021 22:38:53
Local (UTC-5)  10-May-2021 17:38:53
 
METAR
KMEZ 
20nm S 
102215Z AUTO 09006KT 10SM OVC010 13/13 A3007 RMK AO2 LTG DSNT S
KRKR 
26nm W 
102215Z AUTO 00000KT 10SM BKN018 OVC060 16/11 A3007 RMK AO2
KFSM 
30nm NW 
102153Z 06005KT 10SM OVC070 17/11 A3007 RMK AO2 SLP179 T01670106
KMWT 
32nm SE 
102142Z AUTO VRB03KT 10SM FEW008 OVC015 13/11 A3005 RMK AO2 RAE42 P0005 T01330111 $
TAF
KFSM 
30nm NW 
101723Z 1018/1118 09006KT P6SM VCSH BKN025 FM102100 08005KT P6SM BKN045 FM111000 07007KT P6SM OVC045 FM111400 08009KT P6SM OVC025 PROB30 1114/1118 4SM -SHRA OVC012
NOTAMs
Click for the latest NOTAMs
NOTAMs are issued by the DoD/FAA and will open in a separate window not controlled by AirNav.

 

 
 

Would you like to see your business listed on this page?

 If your business provides an interesting product or service to pilots, flight crews, aircraft, or users of the Waldron Municipal Airport, you should consider listing it here.  To start the listing process, click on the button below
 
Add a business
 

Other Pages about Waldron Municipal Airport

Update a link
 
Copyright © AirNav, LLC. All rights reserved. Privacy Policy  Contact